EN

Hourly Weather Amangeldy

Today, 28 January, Thursday

Time Temperature Precipitation Wind Pressure Humidity
00:00 -15°C° 0 mm 7 mps 762 mmHg 88%
01:00 -15°C° 0 mm 6 mps 762 mmHg 89%
02:00 -15°C° 0 mm 6 mps 762 mmHg 89%
03:00 -15°C° 0 mm 7 mps 762 mmHg 89%
04:00 -15°C° 0 mm 7 mps 762 mmHg 89%
05:00 -15°C° 0 mm 7 mps 762 mmHg 88%
06:00 -15°C° 0 mm 7 mps 762 mmHg 87%
07:00 -15°C° 0 mm 6 mps 762 mmHg 86%
08:00 -14°C° 0 mm 7 mps 762 mmHg 84%
09:00 -13°C° 0 mm 7 mps 762 mmHg 82%
10:00 -12°C° 0 mm 8 mps 762 mmHg 80%
11:00 -11°C° 0 mm 8 mps 762 mmHg 79%
12:00 -9°C° 0 mm 7 mps 762 mmHg 78%
13:00 -8°C° 0 mm 7 mps 761 mmHg 77%
14:00 -8°C° 0 mm 7 mps 761 mmHg 78%
15:00 -9°C° 0 mm 7 mps 761 mmHg 79%
16:00 -9°C° 0 mm 7 mps 761 mmHg 80%
17:00 -11°C° 0 mm 7 mps 761 mmHg 81%
18:00 -12°C° 0 mm 7 mps 761 mmHg 82%
19:00 -13°C° 0 mm 7 mps 761 mmHg 84%
20:00 -13°C° 0 mm 7 mps 761 mmHg 84%
21:00 -13°C° 0 mm 7 mps 761 mmHg 84%
22:00 -13°C° 0 mm 7 mps 761 mmHg 84%
23:00 -12°C° 0 mm 6 mps 761 mmHg 84%

Tomorrow, 29 January, Friday

Time Temperature Precipitation Wind Pressure Humidity
00:00 -12°C° 0 mm 6 mps 760 mmHg 84%
01:00 -12°C° 0 mm 6 mps 760 mmHg 85%
02:00 -12°C° 0 mm 6 mps 760 mmHg 85%
03:00 -12°C° 0 mm 6 mps 760 mmHg 85%
04:00 -14°C° 0 mm 6 mps 759 mmHg 86%
05:00 -14°C° 0 mm 6 mps 759 mmHg 85%
06:00 -14°C° 0 mm 6 mps 759 mmHg 84%
07:00 -14°C° 0 mm 6 mps 759 mmHg 84%
08:00 -12°C° 0 mm 6 mps 759 mmHg 82%
09:00 -11°C° 0 mm 7 mps 759 mmHg 80%
10:00 -9°C° 0 mm 7 mps 759 mmHg 78%
11:00 -8°C° 0 mm 7 mps 758 mmHg 77%
12:00 -7°C° 0 mm 7 mps 758 mmHg 77%
13:00 -6°C° 0 mm 7 mps 758 mmHg 77%
14:00 -7°C° 0 mm 7 mps 757 mmHg 78%
15:00 -7°C° 0 mm 7 mps 757 mmHg 79%
16:00 -8°C° 0 mm 6 mps 757 mmHg 81%
17:00 -9°C° 0 mm 6 mps 756 mmHg 81%
18:00 -11°C° 0 mm 7 mps 756 mmHg 82%
19:00 -12°C° 0 mm 7 mps 756 mmHg 83%
20:00 -11°C° 0 mm 6 mps 756 mmHg 83%
21:00 -11°C° 0 mm 6 mps 756 mmHg 83%
22:00 -11°C° 0 mm 6 mps 755 mmHg 82%
23:00 -11°C° 0 mm 5 mps 755 mmHg 83%

Day after tomorrow, 30 January, Saturday

Time Temperature Precipitation Wind Pressure Humidity
00:00 -11°C° 0 mm 5 mps 755 mmHg 83%
01:00 -11°C° 0 mm 5 mps 755 mmHg 84%
02:00 -12°C° 0 mm 5 mps 754 mmHg 84%
03:00 -12°C° 0 mm 5 mps 754 mmHg 84%
04:00 -12°C° 0 mm 5 mps 753 mmHg 84%
05:00 -12°C° 0 mm 5 mps 753 mmHg 83%
06:00 -12°C° 0 mm 5 mps 753 mmHg 83%
07:00 -12°C° 0 mm 5 mps 753 mmHg 82%
08:00 -11°C° 0 mm 5 mps 753 mmHg 78%
09:00 -8°C° 0 mm 5 mps 752 mmHg 75%
10:00 -7°C° 0 mm 5 mps 752 mmHg 72%
11:00 -6°C° 0 mm 5 mps 752 mmHg 71%
12:00 -5°C° 0 mm 5 mps 751 mmHg 70%
13:00 -4°C° 0 mm 5 mps 751 mmHg 69%
14:00 -4°C° 0 mm 5 mps 751 mmHg 71%
15:00 -5°C° 0 mm 5 mps 750 mmHg 72%
16:00 -5°C° 0 mm 5 mps 750 mmHg 74%
17:00 -6°C° 0 mm 5 mps 750 mmHg 74%
18:00 -7°C° 0 mm 5 mps 750 mmHg 75%
19:00 -8°C° 0 mm 5 mps 750 mmHg 75%
20:00 -7°C° 0 mm 5 mps 750 mmHg 74%
21:00 -7°C° 0 mm 5 mps 750 mmHg 72%
22:00 -6°C° 0 mm 5 mps 750 mmHg 71%
23:00 -5°C° 0 mm 4 mps 750 mmHg 71%

31 January, Sunday

Time Temperature Precipitation Wind Pressure Humidity
00:00 -5°C° 0 mm 4 mps 749 mmHg 71%
01:00 -5°C° 0 mm 4 mps 749 mmHg 71%
02:00 -6°C° 0 mm 5 mps 749 mmHg 71%
03:00 -5°C° 0 mm 5 mps 748 mmHg 71%
04:00 -5°C° 0 mm 5 mps 748 mmHg 71%
05:00 -5°C° 0 mm 5 mps 748 mmHg 72%
06:00 -5°C° 0 mm 5 mps 748 mmHg 73%
07:00 -5°C° 0 mm 5 mps 749 mmHg 74%
08:00 -4°C° 0 mm 5 mps 749 mmHg 73%
09:00 -4°C° 0 mm 5 mps 749 mmHg 72%
10:00 -2°C° 0 mm 5 mps 749 mmHg 70%
11:00 -2°C° 0 mm 5 mps 749 mmHg 71%
12:00 -2°C° 0 mm 6 mps 748 mmHg 72%
13:00 -2°C° 0 mm 6 mps 748 mmHg 73%
14:00 -3°C° 0 mm 6 mps 748 mmHg 74%
15:00 -2°C° 0 mm 5 mps 748 mmHg 76%
16:00 -4°C° 0 mm 5 mps 748 mmHg 77%
17:00 -4°C° 0 mm 5 mps 748 mmHg 78%
18:00 -5°C° 0 mm 5 mps 749 mmHg 79%
19:00 -5°C° 0 mm 5 mps 749 mmHg 80%
20:00 -4°C° 0 mm 4 mps 750 mmHg 80%
21:00 -4°C° 0 mm 4 mps 750 mmHg 81%
22:00 -4°C° 0 mm 4 mps 750 mmHg 81%
23:00 -4°C° 0.1 mm 4 mps 750 mmHg 84%

1 February, Monday

Time Temperature Precipitation Wind Pressure Humidity
00:00 -3°C° 0.1 mm 4 mps 750 mmHg 88%
01:00 -1°C° 0.1 mm 3 mps 751 mmHg 91%
02:00 -1°C° 0 mm 3 mps 751 mmHg 93%
03:00 -1°C° 0 mm 3 mps 751 mmHg 94%
04:00 0°C° 0 mm 3 mps 751 mmHg 96%
05:00 0°C° 0 mm 3 mps 751 mmHg 96%
06:00 0°C° 0 mm 3 mps 752 mmHg 95%
07:00 0°C° 0 mm 3 mps 752 mmHg 95%
08:00 +1°C° 0 mm 2 mps 753 mmHg 95%
09:00 +2°C° 0 mm 2 mps 753 mmHg 94%
10:00 +2°C° 0 mm 2 mps 753 mmHg 94%
11:00 +2°C° 0 mm 2 mps 754 mmHg 93%
12:00 +3°C° 0 mm 2 mps 754 mmHg 92%
13:00 +3°C° 0 mm 2 mps 754 mmHg 91%
14:00 +3°C° 0 mm 2 mps 754 mmHg 93%
15:00 +3°C° 0 mm 2 mps 754 mmHg 94%
16:00 +3°C° 0 mm 2 mps 755 mmHg 96%
17:00 +2°C° 0 mm 2 mps 755 mmHg 96%
18:00 +2°C° 0 mm 2 mps 756 mmHg 97%
19:00 +2°C° 0 mm 2 mps 756 mmHg 97%
20:00 +2°C° 0 mm 2 mps 757 mmHg 96%
21:00 +1°C° 0 mm 2 mps 757 mmHg 96%
22:00 +1°C° 0 mm 2 mps 757 mmHg 95%
23:00 +1°C° 0 mm 2 mps 758 mmHg 95%

2 February, Tuesday

Time Temperature Precipitation Wind Pressure Humidity
00:00 +1°C° 0 mm 2 mps 758 mmHg 95%
01:00 +1°C° 0 mm 2 mps 758 mmHg 94%
02:00 +2°C° 0 mm 1 mps 758 mmHg 95%
03:00 +2°C° 0 mm 1 mps 759 mmHg 95%
04:00 +2°C° 0 mm 1 mps 759 mmHg 95%
05:00 +2°C° 0 mm 1 mps 759 mmHg 95%
06:00 +2°C° 0 mm 1 mps 759 mmHg 96%
07:00 +1°C° 0 mm 2 mps 760 mmHg 96%
08:00 +1°C° 0 mm 2 mps 760 mmHg 94%
09:00 +2°C° 0 mm 2 mps 760 mmHg 92%
10:00 +2°C° 0 mm 2 mps 761 mmHg 90%
11:00 +3°C° 0 mm 2 mps 760 mmHg 87%
12:00 +3°C° 0 mm 2 mps 760 mmHg 84%
13:00 +3°C° 0 mm 2 mps 760 mmHg 81%
14:00 +3°C° 0 mm 2 mps 760 mmHg 82%
15:00 +3°C° 0 mm 2 mps 760 mmHg 83%
16:00 +2°C° 0 mm 2 mps 760 mmHg 84%
17:00 +2°C° 0 mm 2 mps 760 mmHg 87%
18:00 +1°C° 0 mm 2 mps 761 mmHg 90%
19:00 -1°C° 0 mm 3 mps 761 mmHg 93%
20:00 -1°C° 0 mm 3 mps 761 mmHg 93%
21:00 -1°C° 0 mm 3 mps 761 mmHg 94%
22:00 -1°C° 0 mm 3 mps 760 mmHg 94%
23:00 -1°C° 0 mm 3 mps 760 mmHg 94%
Show more